Home   Weather   Podgorica   Past weeks

Flag for Montenegro Past Weather in Podgorica, Montenegro — Yesterday and Last 2 Weeks

Now
39 °F

Clear.


Feels Like: 39 °F
Forecast: 35 / 54 °F
Wind: 2 mph from North

Location: Podgorica Titograd

Current Time: Dec 6, 2016 at 11:07:31 pm

Latest Report: Dec 6, 2016 at 10:00 pm


Visibility: 4 mi

Pressure: 30.36 "Hg

Humidity: 81%

Dew Point: 34 °F

Location of PodgoricaLocation

Past Weather in Podgorica — Graph

°F

Podgorica Temperature Yesterday

Maximum temperature yesterday: 57 °F (at 2:00 pm)
Minimum temperature yesterday: 30 °F (at 4:30 am)
Average temperature yesterday: 40 °F

High & Low Weather Summary for the Past Weeks

 TemperatureHumidityPressure
High64 °F (Nov 22, 12:30 pm)100% (Nov 24, 5:30 am)30.42 "Hg (Nov 24, 5:30 am)
Low30 °F (Dec 5, 4:30 am)21% (Dec 5, 2:00 pm)29.80 "Hg (Nov 28, 1:30 am)
Average45 °F69%30.15 "Hg
* Reported Nov 21 10:00 pm — Dec 6 10:00 pm, Podgorica, Weather by CustomWeather, © 2016

Note: Actual official high and low records may vary slightly from our data, if they occured in-between our weather recording intervals... More about our weather records

Advertising

Podgorica Weather History for the Previous 24 Hours

Scroll right to see more
 ConditionsComfort  
Time TempWeatherWind HumidityBarometerVisibility
10:00 pm
Tue, Dec 6
39 °FClear.2 mph81%30.36 "Hg4 mi
9:30 pm37 °FClear.3 mph87%30.36 "Hg4 mi
9:00 pm39 °FClear.6 mph81%30.36 "Hg4 mi
8:30 pm39 °FPassing clouds.2 mph81%30.36 "Hg5 mi
8:00 pm41 °FPassing clouds.1 mph76%30.36 "HgN/A
7:00 pm43 °FPassing clouds.3 mph71%30.33 "HgN/A
6:30 pm43 °FPassing clouds.2 mph71%30.33 "HgN/A
6:00 pm45 °FPassing clouds.2 mph71%30.33 "HgN/A
5:30 pm45 °FPassing clouds.1 mph71%30.33 "HgN/A
5:00 pm48 °FPassing clouds.1 mph62%30.30 "HgN/A
4:30 pm50 °FPassing clouds.1 mph58%30.30 "HgN/A
4:00 pm52 °FScattered clouds.3 mph54%30.30 "HgN/A
3:30 pm54 °FPassing clouds.2 mph47%30.30 "HgN/A
3:00 pm55 °FPassing clouds.2 mph44%30.30 "HgN/A
2:30 pm55 °FPassing clouds.3 mph44%30.30 "HgN/A
2:00 pm55 °FPassing clouds.5 mph44%30.30 "HgN/A
1:30 pm55 °FScattered clouds.6 mph47%30.30 "HgN/A
1:00 pm57 °FScattered clouds.5 mph39%30.33 "HgN/A
12:30 pm57 °FScattered clouds.2 mph39%30.33 "HgN/A
12:00 pm55 °FScattered clouds.1 mph41%30.33 "HgN/A
11:30 am54 °FScattered clouds.2 mph44%30.36 "HgN/A
11:00 am52 °FScattered clouds.2 mph47%30.36 "HgN/A
10:30 am50 °FScattered clouds.2 mph47%30.36 "HgN/A
10:00 am46 °FScattered clouds.2 mph57%30.39 "HgN/A
9:30 am43 °FScattered clouds.2 mph66%30.39 "HgN/A
9:00 am41 °FScattered clouds.1 mph70%30.36 "HgN/A
8:30 am37 °FScattered clouds.2 mph75%30.36 "HgN/A
8:00 am32 °FScattered clouds.1 mph80%30.36 "HgN/A
7:30 am32 °FScattered clouds.1 mph80%30.36 "HgN/A
7:00 am30 °FScattered clouds.1 mph80%30.36 "HgN/A
6:30 am32 °FPassing clouds.3 mph75%30.36 "HgN/A
6:00 am32 °FClear.2 mph80%30.36 "Hg10 mi
5:30 am30 °FPassing clouds.3 mph80%30.36 "HgN/A
5:00 am30 °FClear.3 mph80%30.36 "Hg10 mi
4:30 am32 °FClear.1 mph75%30.36 "Hg10 mi
4:00 am32 °FClear.3 mph75%30.36 "Hg10 mi
3:30 am32 °FClear.1 mph75%30.36 "Hg10 mi
3:00 am34 °FClear.1 mph70%30.39 "Hg10 mi
2:30 am32 °FClear.1 mph75%30.39 "Hg10 mi
2:00 am34 °FPassing clouds.3 mph70%30.39 "HgN/A
1:30 am32 °FClear.3 mph75%30.39 "Hg10 mi
1:00 am34 °FPassing clouds.3 mph70%30.39 "HgN/A
12:30 am34 °FClear.1 mph70%30.39 "Hg6 mi
12:00 am36 °FClear.3 mph65%30.39 "Hg6 mi
11:30 pm
Mon, Dec 5
36 °FClear.3 mph65%30.39 "Hg5 mi
11:00 pm36 °FClear.5 mph65%30.39 "Hg5 mi
Weather by CustomWeather, © 2016

See weather overviewHow to use our weather pages